| time (UTC) | temp F | wind direction | speed MPH | gust MPH | rain 1hr in | rain 24hr in | rain mn in | humidity % | barometer mb |
| 20260507031504 | 51 | 25 | 0.0 | 0.0 | 0.00 | 0.09 | 0.00 | 92 | 1020.3 |
| 20260507030504 | 52 | 25 | 0.0 | 0.0 | 0.00 | 0.09 | 0.00 | 92 | 1020.4 |
| 20260507030004 | 52 | 25 | 0.0 | 0.0 | 0.00 | 0.09 | 0.00 | 92 | 1020.4 |
| 20260507025504 | 52 | 25 | 0.0 | 1.0 | 0.00 | 0.09 | 0.00 | 92 | 1020.3 |
| 20260507025003 | 52 | 25 | 0.0 | 0.0 | 0.00 | 0.09 | 0.00 | 92 | 1020.3 |
| 20260507024004 | 52 | 25 | 0.0 | 1.0 | 0.00 | 0.09 | 0.00 | 92 | 1020.4 |
| 20260507023004 | 52 | 26 | 0.0 | 1.0 | 0.00 | 0.09 | 0.00 | 92 | 1020.4 |
| 20260507022504 | 52 | 26 | 0.0 | 1.0 | 0.00 | 0.09 | 0.00 | 92 | 1020.6 |
| 20260507022004 | 52 | 26 | 1.0 | 1.0 | 0.00 | 0.09 | 0.00 | 92 | 1020.6 |
| 20260507021504 | 52 | 26 | 0.0 | 0.0 | 0.00 | 0.09 | 0.00 | 92 | 1020.6 |
| 20260507020503 | 52 | 26 | 0.0 | 0.0 | 0.00 | 0.09 | 0.00 | 92 | 1020.6 |
| 20260507020004 | 52 | 26 | 0.0 | 0.0 | 0.00 | 0.09 | 0.00 | 92 | 1020.8 |
| 20260507015503 | 52 | 26 | 0.0 | 0.0 | 0.00 | 0.09 | 0.00 | 92 | 1020.7 |
| 20260507015004 | 52 | 26 | 0.0 | 0.0 | 0.00 | 0.09 | 0.00 | 92 | 1020.7 |
| 20260507014503 | 52 | 26 | 0.0 | 1.0 | 0.00 | 0.09 | 0.00 | 92 | 1020.6 |
| 20260507013503 | 52 | 26 | 1.0 | 2.0 | 0.00 | 0.09 | 0.00 | 92 | 1020.8 |
| 20260507012505 | 51 | 26 | 0.0 | 1.0 | 0.00 | 0.09 | 0.00 | 92 | 1020.8 |
| 20260507012004 | 51 | 26 | 0.0 | 0.0 | 0.00 | 0.09 | 0.00 | 92 | 1020.9 |
| 20260507011504 | 51 | 26 | 0.0 | 1.0 | 0.00 | 0.09 | 0.00 | 92 | 1021.1 |
| 20260507005504 | 51 | 26 | 0.0 | 1.0 | 0.00 | 0.09 | 0.00 | 93 | 1020.9 |
| 20260507005004 | 51 | 26 | 0.0 | 0.0 | 0.00 | 0.09 | 0.00 | 93 | 1020.8 |
| 20260507004504 | 51 | 26 | 0.0 | 1.0 | 0.00 | 0.09 | 0.00 | 93 | 1020.9 |
| 20260507004004 | 52 | 26 | 0.0 | 1.0 | 0.00 | 0.09 | 0.00 | 93 | 1020.9 |
| 20260507003504 | 52 | 26 | 0.0 | 1.0 | 0.00 | 0.09 | 0.00 | 93 | 1020.9 |
| 20260507003004 | 52 | 26 | 0.0 | 1.0 | 0.00 | 0.09 | 0.00 | 93 | 1020.9 |
| 20260507002504 | 52 | 26 | 0.0 | 0.0 | 0.00 | 0.09 | 0.00 | 93 | 1021.1 |
| 20260507002004 | 52 | 26 | 0.0 | 0.0 | 0.00 | 0.09 | 0.00 | 93 | 1021.0 |
| 20260507001504 | 52 | 26 | 0.0 | 0.0 | 0.00 | 0.09 | 0.00 | 93 | 1021.0 |
| 20260507001003 | 52 | 27 | 0.0 | 1.0 | 0.00 | 0.09 | 0.00 | 92 | 1021.1 |
| 20260507000004 | 52 | 26 | 0.0 | 0.0 | 0.00 | 0.09 | 0.00 | 92 | 1020.9 |
| 20260506235503 | 53 | 26 | 0.0 | 0.0 | 0.00 | 0.09 | 0.00 | 92 | 1021.2 |
| 20260506235004 | 53 | 26 | 0.0 | 1.0 | 0.00 | 0.09 | 0.00 | 92 | 1021.0 |
| 20260506234504 | 53 | 26 | 0.0 | 1.0 | 0.00 | 0.09 | 0.00 | 92 | 1021.0 |
| 20260506234003 | 52 | 26 | 0.0 | 0.0 | 0.00 | 0.09 | 0.00 | 92 | 1021.0 |
| 20260506233503 | 53 | 26 | 0.0 | 0.0 | 0.00 | 0.09 | 0.00 | 92 | 1020.9 |
| 20260506233004 | 53 | 26 | 0.0 | 1.0 | 0.00 | 0.09 | 0.00 | 91 | 1021.1 |
| 20260506232504 | 53 | 27 | 1.0 | 1.0 | 0.00 | 0.09 | 0.00 | 91 | 1021.0 |
| 20260506232004 | 53 | 27 | 0.0 | 1.0 | 0.00 | 0.09 | 0.00 | 91 | 1021.1 |
| 20260506231504 | 53 | 26 | 0.0 | 0.0 | 0.00 | 0.09 | 0.00 | 91 | 1021.1 |
| 20260506231003 | 53 | 26 | 0.0 | 1.0 | 0.00 | 0.09 | 0.00 | 91 | 1020.9 |
| 20260506225503 | 53 | 27 | 1.0 | 2.0 | 0.00 | 0.09 | 0.00 | 90 | 1020.9 |
| 20260506224503 | 53 | 27 | 0.0 | 1.0 | 0.00 | 0.09 | 0.00 | 90 | 1021.2 |
| 20260506224003 | 53 | 27 | 0.0 | 0.0 | 0.00 | 0.09 | 0.00 | 90 | 1021.3 |
| 20260506222004 | 54 | 27 | 1.0 | 1.0 | 0.00 | 0.09 | 0.00 | 89 | 1021.1 |
| 20260506221504 | 54 | 27 | 1.0 | 1.0 | 0.00 | 0.09 | 0.00 | 89 | 1021.1 |
| 20260506221004 | 54 | 27 | 0.0 | 1.0 | 0.00 | 0.09 | 0.00 | 89 | 1021.0 |
| 20260506220004 | 54 | 27 | 0.0 | 2.0 | 0.00 | 0.09 | 0.00 | 89 | 1021.2 |
| 20260506215504 | 54 | 27 | 0.0 | 1.0 | 0.00 | 0.09 | 0.09 | 89 | 1021.2 |
| 20260506215004 | 54 | 27 | 0.0 | 0.0 | 0.00 | 0.09 | 0.09 | 89 | 1021.1 |
| 20260506214504 | 54 | 27 | 0.0 | 1.0 | 0.00 | 0.09 | 0.09 | 89 | 1020.9 |
| 20260506214004 | 54 | 27 | 0.0 | 1.0 | 0.00 | 0.09 | 0.09 | 89 | 1021.0 |
| 20260506213504 | 54 | 27 | 0.0 | 1.0 | 0.00 | 0.09 | 0.09 | 89 | 1021.1 |
| 20260506212003 | 54 | 28 | 0.0 | 1.0 | 0.00 | 0.09 | 0.09 | 89 | 1020.9 |
| 20260506211503 | 54 | 28 | 1.0 | 1.0 | 0.00 | 0.09 | 0.09 | 89 | 1021.0 |
| 20260506211005 | 54 | 28 | 0.0 | 2.0 | 0.00 | 0.09 | 0.09 | 89 | 1020.9 |
| 20260506210504 | 54 | 28 | 0.0 | 1.0 | 0.00 | 0.09 | 0.09 | 90 | 1021.1 |
| 20260506204504 | 55 | 28 | 0.0 | 1.0 | 0.00 | 0.09 | 0.09 | 89 | 1020.5 |
| 20260506204004 | 55 | 28 | 0.0 | 1.0 | 0.00 | 0.09 | 0.09 | 89 | 1020.2 |
| 20260506203504 | 55 | 28 | 0.0 | 1.0 | 0.00 | 0.09 | 0.09 | 88 | 1020.1 |
| 20260506203004 | 55 | 28 | 0.0 | 1.0 | 0.00 | 0.09 | 0.09 | 88 | 1020.1 |
| 20260506202504 | 56 | 28 | 1.0 | 1.0 | 0.00 | 0.09 | 0.09 | 88 | 1019.9 |
| 20260506202004 | 55 | 28 | 1.0 | 1.0 | 0.00 | 0.09 | 0.09 | 88 | 1020.0 |
| 20260506201504 | 55 | 28 | 0.0 | 0.0 | 0.00 | 0.09 | 0.09 | 88 | 1019.8 |
| 20260506201004 | 55 | 28 | 1.0 | 2.0 | 0.00 | 0.09 | 0.09 | 88 | 1019.6 |
| 20260506200504 | 55 | 28 | 0.0 | 1.0 | 0.00 | 0.09 | 0.09 | 88 | 1019.6 |
| 20260506200004 | 55 | 28 | 0.0 | 0.0 | 0.00 | 0.09 | 0.09 | 88 | 1019.5 |
| 20260506195503 | 56 | 28 | 0.0 | 0.0 | 0.00 | 0.09 | 0.09 | 88 | 1019.6 |
| 20260506195003 | 56 | 28 | 0.0 | 1.0 | 0.00 | 0.09 | 0.09 | 88 | 1019.4 |
| 20260506194004 | 56 | 28 | 0.0 | 2.0 | 0.00 | 0.09 | 0.09 | 87 | 1019.3 |
| 20260506193504 | 56 | 28 | 0.0 | 2.0 | 0.00 | 0.09 | 0.09 | 86 | 1019.1 |
| 20260506192504 | 57 | 28 | 1.0 | 1.0 | 0.00 | 0.09 | 0.09 | 86 | 1019.1 |
| 20260506192004 | 57 | 28 | 1.0 | 3.0 | 0.00 | 0.09 | 0.09 | 85 | 1019.0 |
| 20260506191504 | 57 | 41 | 1.0 | 2.0 | 0.00 | 0.09 | 0.09 | 85 | 1019.2 |
| 20260506191004 | 57 | 49 | 1.0 | 3.0 | 0.00 | 0.09 | 0.09 | 85 | 1019.0 |
| 20260506190504 | 58 | 58 | 2.0 | 3.0 | 0.00 | 0.09 | 0.09 | 84 | 1018.9 |
| 20260506190003 | 58 | 52 | 2.0 | 5.0 | 0.00 | 0.09 | 0.09 | 83 | 1018.8 |
| 20260506185503 | 58 | 51 | 3.0 | 6.0 | 0.00 | 0.09 | 0.09 | 83 | 1018.7 |
| 20260506185004 | 58 | 38 | 3.0 | 6.0 | 0.00 | 0.09 | 0.09 | 83 | 1018.7 |
| 20260506184004 | 58 | 37 | 2.0 | 5.0 | 0.00 | 0.09 | 0.09 | 82 | 1018.7 |
| 20260506183503 | 59 | 50 | 3.0 | 5.0 | 0.00 | 0.09 | 0.09 | 81 | 1018.4 |
| 20260506183005 | 59 | 44 | 2.0 | 3.0 | 0.00 | 0.09 | 0.09 | 81 | 1018.3 |
| 20260506182504 | 59 | 29 | 2.0 | 5.0 | 0.00 | 0.09 | 0.09 | 81 | 1018.3 |
| 20260506181504 | 59 | 49 | 3.0 | 5.0 | 0.00 | 0.09 | 0.09 | 81 | 1018.4 |
| 20260506181004 | 59 | 50 | 3.0 | 6.0 | 0.00 | 0.09 | 0.09 | 80 | 1018.2 |
| 20260506180503 | 60 | 32 | 3.0 | 7.0 | 0.00 | 0.09 | 0.09 | 80 | 1018.2 |
| 20260506180005 | 60 | 43 | 3.0 | 6.0 | 0.00 | 0.09 | 0.09 | 79 | 1018.1 |
| 20260506175504 | 60 | 51 | 3.0 | 5.0 | 0.00 | 0.09 | 0.09 | 78 | 1017.9 |
| 20260506175004 | 61 | 40 | 3.0 | 7.0 | 0.00 | 0.09 | 0.09 | 77 | 1017.9 |
| 20260506174503 | 61 | 48 | 3.0 | 7.0 | 0.00 | 0.09 | 0.09 | 76 | 1018.0 |
| 20260506174004 | 61 | 48 | 2.0 | 3.0 | 0.00 | 0.09 | 0.09 | 76 | 1018.0 |
| 20260506173503 | 61 | 42 | 2.0 | 3.0 | 0.00 | 0.09 | 0.09 | 76 | 1018.0 |
| 20260506173004 | 61 | 37 | 0.0 | 3.0 | 0.00 | 0.09 | 0.09 | 76 | 1018.0 |
| 20260506172504 | 61 | 38 | 2.0 | 5.0 | 0.00 | 0.09 | 0.09 | 76 | 1017.9 |
| 20260506172004 | 61 | 42 | 3.0 | 6.0 | 0.00 | 0.09 | 0.09 | 76 | 1018.0 |
| 20260506171504 | 62 | 51 | 3.0 | 5.0 | 0.00 | 0.09 | 0.09 | 76 | 1018.0 |
| 20260506171003 | 62 | 48 | 3.0 | 5.0 | 0.00 | 0.09 | 0.09 | 74 | 1017.9 |
| 20260506170504 | 62 | 33 | 1.0 | 3.0 | 0.00 | 0.09 | 0.09 | 71 | 1018.0 |
| 20260506170004 | 62 | 46 | 2.0 | 3.0 | 0.00 | 0.09 | 0.09 | 71 | 1017.8 |
| 20260506165503 | 62 | 43 | 2.0 | 5.0 | 0.00 | 0.09 | 0.09 | 70 | 1018.0 |
| 20260506164503 | 61 | 70 | 1.0 | 3.0 | 0.00 | 0.09 | 0.09 | 69 | 1017.9 |
| 20260506164004 | 62 | 59 | 2.0 | 8.0 | 0.00 | 0.09 | 0.09 | 70 | 1017.9 |
| 20260506163004 | 61 | 85 | 2.0 | 6.0 | 0.00 | 0.09 | 0.09 | 71 | 1018.0 |
| 20260506162504 | 61 | 38 | 2.0 | 6.0 | 0.00 | 0.09 | 0.09 | 72 | 1018.1 |
| 20260506162003 | 61 | 38 | 1.0 | 6.0 | 0.00 | 0.09 | 0.09 | 72 | 1017.8 |
| 20260506161504 | 62 | 45 | 2.0 | 6.0 | 0.00 | 0.09 | 0.09 | 71 | 1017.8 |
| 20260506161004 | 62 | 32 | 2.0 | 3.0 | 0.00 | 0.09 | 0.09 | 69 | 1017.8 |
| 20260506160503 | 62 | 51 | 2.0 | 3.0 | 0.00 | 0.09 | 0.09 | 68 | 1017.7 |
| 20260506160004 | 61 | 54 | 2.0 | 6.0 | 0.00 | 0.09 | 0.09 | 68 | 1018.0 |
| 20260506155004 | 61 | 57 | 3.0 | 7.0 | 0.00 | 0.09 | 0.09 | 74 | 1018.0 |
| 20260506154503 | 62 | 60 | 4.0 | 6.0 | 0.00 | 0.09 | 0.09 | 73 | 1017.7 |
| 20260506154004 | 61 | 236 | 1.0 | 6.0 | 0.00 | 0.09 | 0.09 | 71 | 1017.7 |
| 20260506153504 | 61 | 212 | 3.0 | 5.0 | 0.00 | 0.09 | 0.09 | 71 | 1017.8 |
| 20260506153004 | 61 | 222 | 2.0 | 3.0 | 0.00 | 0.09 | 0.09 | 70 | 1017.8 |
| 20260506152504 | 61 | 251 | 1.0 | 2.0 | 0.00 | 0.09 | 0.09 | 69 | 1018.0 |
| 20260506152004 | 62 | 258 | 1.0 | 2.0 | 0.00 | 0.09 | 0.09 | 70 | 1017.8 |
| 20260506151503 | 62 | 231 | 0.0 | 3.0 | 0.00 | 0.09 | 0.09 | 70 | 1018.2 |
| 20260506151004 | 62 | 243 | 1.0 | 3.0 | 0.00 | 0.09 | 0.09 | 70 | 1018.0 |
| 20260506150504 | 62 | 56 | 2.0 | 5.0 | 0.00 | 0.09 | 0.09 | 69 | 1017.9 |
| 20260506150004 | 63 | 255 | 0.0 | 2.0 | 0.00 | 0.09 | 0.09 | 68 | 1017.7 |
| 20260506145504 | 63 | 46 | 1.0 | 3.0 | 0.00 | 0.09 | 0.09 | 68 | 1017.9 |
| 20260506145004 | 62 | 250 | 0.0 | 3.0 | 0.00 | 0.09 | 0.09 | 72 | 1017.8 |
| 20260506144503 | 61 | 349 | 2.0 | 6.0 | 0.00 | 0.09 | 0.09 | 73 | 1018.3 |
| 20260506144004 | 60 | 294 | 1.0 | 3.0 | 0.00 | 0.09 | 0.09 | 75 | 1018.3 |
| 20260506143004 | 59 | 50 | 3.0 | 6.0 | 0.00 | 0.09 | 0.09 | 76 | 1018.7 |
| 20260506142004 | 59 | 33 | 2.0 | 5.0 | 0.00 | 0.09 | 0.09 | 77 | 1018.9 |
| 20260506141503 | 59 | 48 | 2.0 | 5.0 | 0.00 | 0.09 | 0.09 | 78 | 1019.1 |
| 20260506141004 | 58 | 48 | 3.0 | 8.0 | 0.01 | 0.09 | 0.09 | 78 | 1019.0 |
| 20260506140504 | 59 | 74 | 1.0 | 3.0 | 0.03 | 0.09 | 0.09 | 80 | 1019.1 |
| 20260506140004 | 58 | 57 | 1.0 | 6.0 | 0.04 | 0.09 | 0.09 | 83 | 1019.2 |
| 20260506135504 | 56 | 17 | 3.0 | 6.0 | 0.06 | 0.09 | 0.09 | 86 | 1019.5 |
| 20260506135004 | 57 | 49 | 2.0 | 6.0 | 0.09 | 0.09 | 0.09 | 89 | 1019.5 |
| 20260506134504 | 57 | 39 | 3.0 | 7.0 | 0.09 | 0.09 | 0.09 | 90 | 1019.6 |
| 20260506134003 | 56 | 93 | 1.0 | 5.0 | 0.09 | 0.09 | 0.09 | 90 | 1019.6 |
| 20260506133504 | 56 | 47 | 2.0 | 5.0 | 0.09 | 0.09 | 0.09 | 91 | 1019.6 |
| 20260506133004 | 56 | 49 | 3.0 | 6.0 | 0.09 | 0.09 | 0.09 | 90 | 1019.8 |
| 20260506132004 | 56 | 56 | 2.0 | 5.0 | 0.09 | 0.09 | 0.09 | 89 | 1019.6 |
| 20260506131504 | 56 | 49 | 2.0 | 5.0 | 0.09 | 0.09 | 0.09 | 88 | 1020.0 |
| 20260506131003 | 56 | 44 | 2.0 | 5.0 | 0.08 | 0.08 | 0.08 | 87 | 1019.9 |
| 20260506130503 | 57 | 59 | 2.0 | 5.0 | 0.06 | 0.06 | 0.06 | 85 | 1019.8 |
| 20260506125504 | 58 | 40 | 3.0 | 6.0 | 0.03 | 0.03 | 0.03 | 79 | 1019.7 |
| 20260506125004 | 59 | 52 | 4.0 | 9.0 | 0.00 | 0.00 | 0.00 | 76 | 1019.5 |
| 20260506124004 | 61 | 41 | 6.0 | 13.0 | 0.00 | 0.00 | 0.00 | 69 | 1018.7 |
| 20260506123004 | 63 | 34 | 5.0 | 10.0 | 0.00 | 0.00 | 0.00 | 68 | 1018.5 |
| 20260506122504 | 63 | 39 | 6.0 | 13.0 | 0.00 | 0.00 | 0.00 | 67 | 1018.5 |
| 20260506121504 | 64 | 40 | 5.0 | 12.0 | 0.00 | 0.00 | 0.00 | 64 | 1018.3 |
| 20260506121004 | 64 | 25 | 5.0 | 10.0 | 0.00 | 0.00 | 0.00 | 65 | 1018.3 |
| 20260506120504 | 63 | 55 | 3.0 | 7.0 | 0.00 | 0.00 | 0.00 | 66 | 1018.5 |
| 20260506115504 | 63 | 30 | 2.0 | 6.0 | 0.00 | 0.00 | 0.00 | 66 | 1018.5 |
| 20260506115004 | 64 | 42 | 3.0 | 6.0 | 0.00 | 0.00 | 0.00 | 64 | 1018.4 |
| 20260506114504 | 64 | 28 | 2.0 | 6.0 | 0.00 | 0.00 | 0.00 | 64 | 1018.5 |
| 20260506114005 | 64 | 112 | 2.0 | 3.0 | 0.00 | 0.00 | 0.00 | 62 | 1018.5 |
| 20260506113504 | 64 | 38 | 2.0 | 7.0 | 0.00 | 0.00 | 0.00 | 64 | 1018.7 |
| 20260506113004 | 64 | 65 | 3.0 | 9.0 | 0.00 | 0.00 | 0.00 | 64 | 1018.5 |
| 20260506112504 | 65 | 37 | 3.0 | 6.0 | 0.00 | 0.00 | 0.00 | 62 | 1018.6 |
| 20260506111504 | 63 | 48 | 3.0 | 6.0 | 0.00 | 0.00 | 0.00 | 65 | 1018.9 |
| 20260506111004 | 62 | 69 | 3.0 | 6.0 | 0.00 | 0.00 | 0.00 | 67 | 1019.2 |
| 20260506110504 | 62 | 38 | 4.0 | 8.0 | 0.00 | 0.00 | 0.00 | 66 | 1019.2 |
| 20260506110005 | 62 | 41 | 2.0 | 9.0 | 0.00 | 0.00 | 0.00 | 66 | 1019.2 |
| 20260506105504 | 62 | 40 | 3.0 | 7.0 | 0.00 | 0.00 | 0.00 | 67 | 1019.2 |
| 20260506105004 | 62 | 45 | 2.0 | 6.0 | 0.00 | 0.00 | 0.00 | 67 | 1019.0 |
| 20260506104504 | 62 | 36 | 5.0 | 8.0 | 0.00 | 0.00 | 0.00 | 67 | 1019.2 |
| 20260506102504 | 63 | 69 | 5.0 | 8.0 | 0.00 | 0.00 | 0.00 | 65 | 1019.0 |
| 20260506102005 | 65 | 66 | 1.0 | 5.0 | 0.00 | 0.00 | 0.00 | 62 | 1018.8 |
| 20260506101504 | 63 | 48 | 3.0 | 8.0 | 0.00 | 0.00 | 0.00 | 65 | 1019.1 |
| 20260506101004 | 62 | 29 | 3.0 | 5.0 | 0.00 | 0.00 | 0.00 | 67 | 1019.2 |
| 20260506100504 | 62 | 58 | 5.0 | 8.0 | 0.00 | 0.00 | 0.00 | 68 | 1019.4 |
| 20260506100004 | 62 | 50 | 6.0 | 9.0 | 0.00 | 0.00 | 0.00 | 69 | 1019.4 |
| 20260506095503 | 60 | 30 | 4.0 | 8.0 | 0.00 | 0.00 | 0.00 | 72 | 1019.9 |
| 20260506094504 | 60 | 45 | 3.0 | 9.0 | 0.00 | 0.00 | 0.00 | 71 | 1019.8 |
| 20260506094004 | 61 | 45 | 5.0 | 9.0 | 0.00 | 0.00 | 0.00 | 69 | 1019.7 |
| 20260506093503 | 60 | 37 | 3.0 | 7.0 | 0.00 | 0.00 | 0.00 | 72 | 1019.8 |
| 20260506093004 | 60 | 28 | 3.0 | 8.0 | 0.00 | 0.00 | 0.00 | 73 | 1019.9 |
| 20260506092504 | 60 | 39 | 3.0 | 9.0 | 0.00 | 0.00 | 0.00 | 72 | 1019.8 |
| 20260506091504 | 60 | 39 | 2.0 | 8.0 | 0.00 | 0.00 | 0.00 | 73 | 1019.6 |
| 20260506091004 | 60 | 25 | 3.0 | 8.0 | 0.00 | 0.00 | 0.00 | 74 | 1019.6 |
| 20260506090505 | 60 | 51 | 4.0 | 8.0 | 0.00 | 0.00 | 0.00 | 74 | 1019.4 |
| 20260506090004 | 60 | 48 | 5.0 | 8.0 | 0.00 | 0.00 | 0.00 | 74 | 1019.6 |
| 20260506085504 | 59 | 24 | 3.0 | 10.0 | 0.00 | 0.00 | 0.00 | 75 | 1019.6 |
| 20260506084504 | 60 | 34 | 2.0 | 8.0 | 0.00 | 0.00 | 0.00 | 75 | 1019.4 |
| 20260506083504 | 58 | 44 | 4.0 | 8.0 | 0.00 | 0.00 | 0.00 | 78 | 1019.6 |
| 20260506083004 | 59 | 47 | 5.0 | 8.0 | 0.00 | 0.00 | 0.00 | 76 | 1019.7 |
| 20260506082503 | 59 | 47 | 6.0 | 9.0 | 0.00 | 0.00 | 0.00 | 78 | 1019.6 |
| 20260506082003 | 59 | 42 | 3.0 | 9.0 | 0.00 | 0.00 | 0.00 | 78 | 1019.5 |
| 20260506081503 | 58 | 22 | 3.0 | 6.0 | 0.00 | 0.00 | 0.00 | 80 | 1019.6 |
| 20260506081004 | 59 | 48 | 5.0 | 8.0 | 0.00 | 0.00 | 0.00 | 79 | 1019.5 |
| 20260506080506 | 58 | 39 | 5.0 | 9.0 | 0.00 | 0.00 | 0.00 | 81 | 1019.6 |
| 20260506073504 | 58 | 60 | 2.0 | 6.0 | 0.00 | 0.00 | 0.00 | 83 | 1019.5 |
| 20260506073004 | 58 | 33 | 1.0 | 2.0 | 0.00 | 0.00 | 0.00 | 82 | 1019.7 |
| 20260506072504 | 58 | 57 | 1.0 | 5.0 | 0.00 | 0.00 | 0.00 | 82 | 1019.5 |
| 20260506071504 | 58 | 45 | 2.0 | 7.0 | 0.00 | 0.00 | 0.00 | 84 | 1019.6 |
| 20260506071004 | 58 | 71 | 2.0 | 6.0 | 0.00 | 0.00 | 0.00 | 84 | 1019.8 |
| 20260506070503 | 57 | 74 | 3.0 | 6.0 | 0.00 | 0.00 | 0.00 | 84 | 1019.6 |
| 20260506062003 | 56 | 75 | 1.0 | 2.0 | 0.00 | 0.00 | 0.00 | 85 | 1020.1 |
| 20260506061504 | 55 | 56 | 1.0 | 3.0 | 0.00 | 0.00 | 0.00 | 86 | 1020.2 |
| 20260506061004 | 55 | 257 | 0.0 | 1.0 | 0.00 | 0.00 | 0.00 | 86 | 1020.2 |
| 20260506060504 | 54 | 257 | 0.0 | 1.0 | 0.00 | 0.00 | 0.00 | 86 | 1020.2 |
| 20260506051004 | 53 | 257 | 0.0 | 1.0 | 0.00 | 0.00 | 0.00 | 86 | 1020.0 |
| 20260506050505 | 53 | 257 | 0.0 | 1.0 | 0.00 | 0.00 | 0.00 | 86 | 1020.1 |
| 20260506045004 | 53 | 257 | 0.0 | 0.0 | 0.00 | 0.00 | 0.00 | 85 | 1019.9 |
| 20260506044004 | 53 | 257 | 0.0 | 1.0 | 0.00 | 0.00 | 0.00 | 85 | 1019.9 |
| 20260506043504 | 53 | 257 | 1.0 | 1.0 | 0.00 | 0.00 | 0.00 | 85 | 1020.0 |
| 20260506043004 | 53 | 257 | 0.0 | 1.0 | 0.00 | 0.00 | 0.00 | 86 | 1020.0 |
| 20260506042504 | 53 | 257 | 0.0 | 1.0 | 0.00 | 0.00 | 0.00 | 87 | 1019.9 |
| 20260506042004 | 53 | 257 | 0.0 | 0.0 | 0.00 | 0.00 | 0.00 | 87 | 1019.8 |
| 20260506041504 | 53 | 257 | 0.0 | 0.0 | 0.00 | 0.00 | 0.00 | 87 | 1019.9 |
| 20260506040503 | 52 | 257 | 0.0 | 0.0 | 0.00 | 0.00 | 0.00 | 86 | 1019.9 |
| 20260506040004 | 52 | 257 | 0.0 | 0.0 | 0.00 | 0.00 | 0.00 | 86 | 1019.9 |
| 20260506035504 | 52 | 257 | 0.0 | 1.0 | 0.00 | 0.00 | 0.00 | 86 | 1020.0 |
| 20260506035004 | 52 | 257 | 0.0 | 1.0 | 0.00 | 0.00 | 0.00 | 86 | 1020.1 |
| 20260506034504 | 52 | 257 | 0.0 | 2.0 | 0.00 | 0.00 | 0.00 | 86 | 1020.2 |
| 20260506034003 | 51 | 257 | 0.0 | 0.0 | 0.00 | 0.00 | 0.00 | 85 | 1020.2 |
| 20260506033504 | 51 | 257 | 1.0 | 1.0 | 0.00 | 0.00 | 0.00 | 85 | 1020.5 |
| 20260506032003 | 52 | 258 | 0.0 | 1.0 | 0.00 | 0.00 | 0.00 | 86 | 1020.2 |